User: anonymous   Login
Location: Azat
(46.0765°N, 1.7600°E)
Time: 12:19:05
(UTC+00:00)
Language:

Meteor 2-12 Rocket - Orbit

View from above orbital plane
View from above orbital plane
View from above satellite
View from above satellite

Ground track
Ground track

The orbit data is extracted from the following two-line orbital elements,

1 15517U 85013B   20190.72217042 +.00000031 +00000-0 +14660-4 0  9998
2 15517 082.5364 271.5743 0013597 296.8142 063.1627 13.84892120789912
Epoch (UTC): 08 July 2020 17:19:55
Eccentricity: 0.0013597
inclination: 82.5364°
perigee height: 936 km
apogee height: 956 km
right ascension of ascending node: 271.5743°
argument of perigee: 296.8142°
revolutions per day: 13.84892120
mean anomaly at epoch: 63.1627°
orbit number at epoch: 78991

The dashed part of the orbit path shows where the satellite is in the earth's shadow,  

DLR